Regional Weather Roundup
Issued by NWS

Home | Current Version | Previous Version | Graphics & Text | Print | Product List | Glossary Off
Versions: 1 2 3 4 5 6 7 8 9 10 11 12 13 14 15 16 17 18 19 20 21 22 23 24 25 26 27 28 29 30 31 32 33 34 35 36 37 38 39 40 41 42 43 44 45 46 47 48 49 50

000
ASUS43 KDMX 280403
RWRIA

WEATHER ROUNDUP FOR IOWA
NATIONAL WEATHER SERVICE DES MOINES IA
1100 PM CDT WED APR 27 2016

NOTE: "FAIR" INDICATES FEW OR NO CLOUDS BELOW 12,000 FEET WITH NO
SIGNIFICANT WEATHER AND/OR OBSTRUCTIONS TO VISIBILITY.

* - THESE STATIONS ARE NOT NWS STATIONS...THUS NOT UNDER NWS
QUALITY CONTROL.  THEY ALSO DO NOT REPORT WEATHER SUCH
AS PRECIPITATION OR FOG.

IAZ001>003-012>014-020>022-031>034-043>046-280500-
   NORTHWEST IOWA

CITY           SKY/WX    TMP DP  RH WIND       PRES   REMARKS
CARROLL *      CLOUDY    48  48 100 SE9       29.63R FOG
CHEROKEE *     LGT RAIN  43  43 100 NE13G23   29.68R
DENISON *      CLOUDY    48  46  93 SE6       29.60R
LE MARS *      LGT RAIN  45  43  93 NE18G28   29.68R
ORANGE CITY *  LGT RAIN  43  41  93 E14G23    29.69R
SHELDON *      CLOUDY    41  41 100 E22G32    29.70R
SIOUX CITY     RAIN      47  43  86 NE17G24   29.64S
SPENCER        LGT RAIN  41  38  89 E21G30    29.71F
STORM LAKE *   LGT RAIN  43  43 100 E23G31    29.66R
$$

IAZ055>058-069>071-079>083-090>094-280500-
   SOUTHWEST IOWA

CITY           SKY/WX    TMP DP  RH WIND       PRES   REMARKS
ATLANTIC *     CLOUDY    48  45  87 S13G20    29.62R
AUDUBON *      DRIZZLE   46  45  93 S3        29.63R
CLARINDA *       N/A    N/A N/A N/A MISG        N/A
COUNCIL BLFS * CLOUDY    46  43  87 S8        29.60R
CRESTON *      PTCLDY    46  43  87 S8        29.65R
HARLAN  *      CLOUDY    48  46  93 S7        29.64R
LAMONI         CLEAR     48  41  76 SW7       29.66S
RED OAK *      CLOUDY    48  45  87 S12       29.62R
SHENANDOAH *   CLOUDY    46  46 100 S12       29.62S FOG
$$

IAZ047>049-059>061-072>074-084-280500-
   CENTRAL IOWA

CITY           SKY/WX    TMP DP  RH WIND       PRES   REMARKS
AMES           CLOUDY    47  47 100 E10       29.65S
ANKENY *       CLOUDY    48  48 100 E13       29.65F
BOONE *        CLOUDY    46  46 100 E18G25    29.64S
CHARITON *     CLOUDY    50  50 100 SE9       29.68R
DES MOINES     CLOUDY    51  47  86 E12       29.64F
GRINNELL*      CLOUDY    46  45  93 E16       29.68F
KNOXVILLE *    CLOUDY    50  48  93 E9        29.66F
MARSHALLTOWN   CLOUDY    46  44  93 E20G30    29.69F
NEWTON *       CLOUDY    46  46 100 E18       29.67S
PELLA *        CLOUDY    49  49  99 E6        29.69F FOG
$$

IAZ004>006-015-016-023>025-035-036-280500-
   NORTH CENTRAL IOWA

CITY           SKY/WX    TMP DP  RH WIND       PRES   REMARKS
ALGONA *       CLOUDY    43  41  93 E20G29    29.71F
CLARION *      CLOUDY    43  41  93 E21G30    29.68F
ESTHERVILLE    LGT RAIN  40  39  97 E15       29.74F WCI  32
FORT DODGE *   CLOUDY    43  37  81 E21       29.67S
MASON CITY     LGT RAIN  41  39  93 E16       29.77S FOG
FOREST CITY *  DRIZZLE   41  39  93 E16G25    29.75F
WEBSTER CITY * CLOUDY    45  45 100 E22G31    29.64R
IOWA FALLS *   LGT RAIN  45  43  93 E23       29.69F
$$

IAZ007>011-017>019-026>030-037>042-050>054-066-280500-
   NORTHEAST IOWA

CITY           SKY/WX    TMP DP  RH WIND       PRES   REMARKS
CEDAR RAPIDS   RAIN      45  45 100 E13       29.77F FOG
CHARLES CITY * CLOUDY    43  41  93 E25G32    29.75F
CLINTON *      CLOUDY    46  43  89 E17G28    29.77F
DECORAH *      CLOUDY    43  37  81 E18G30    29.81S
DUBUQUE        CLOUDY    44  38  79 E12       29.81S
MONTICELLO *   CLOUDY    45  41  87 E13       29.78S
OELWEIN *      CLOUDY    45  39  81 E22G29    29.76S
WATERLOO       LGT RAIN  43  40  89 E14       29.76R
$$

IAZ064-065-067-068-078-280500-
   EAST CENTRAL IOWA

CITY           SKY/WX    TMP DP  RH WIND       PRES   REMARKS
DAVENPORT      CLOUDY    47  44  90 E17G25    29.76S
IOWA CITY      TSTM      48  47  96 NE6       29.80R FOG
MT. PLEASANT * CLOUDY    54  54 100 E12       29.71R FOG
MUSCATINE *    RAIN      50  48  93 NE10      29.78R
QUAD CITIES    CLOUDY    51  46  83 NE16      29.75S HAZE
$$

IAZ062-063-075>077-085>089-095>099-280500-
   SOUTHEAST IOWA

CITY           SKY/WX    TMP DP  RH WIND       PRES   REMARKS
BURLINGTON     RAIN      52  52 100 NE15      29.70F FOG
FAIRFIELD *    CLOUDY    50  48  93 E10       29.68R
FORT MADISON * CLOUDY    54  52  94 E12       29.70F FOG
KEOKUK *       CLOUDY    54  52  94 N7G13     29.68F
OSKALOOSA *      N/A     48  48 100 E9        29.68S
OTTUMWA        CLOUDY    49  48  97 SE6       29.69R
WASHINGTON *   CLOUDY    48  48 100 NE22G30   29.69F
$$

ABBREVIATIONS USED IN REMARKS
   TC - TEMPERATURES IN CELSIUS
  WCI - WIND CHILL INDEX
   HX - HEAT INDEX
  VSB - VISIBILITY
$$





USA.gov is the U.S. government's official web portal to all federal, state and local government web resources and services.